Snowfall_Accumulation
0.0 0.0 0.0 0.0 0.0 0.0 0.0 0.0 0.0 0.0 0.0 0.0 0.0 0.0 0.0 0.0 0.0 0.0 0.0 0.0 0.5 26.8 10.9 0.1 0.0 4.7 8.1 9.6 19.0 13.2 18.1 16.4 25.1 34.1 28.0 21.3 14.0 5.3 6.1 5.1 3.1 4.5 16.5 20.6 23.5 25.6 14.4 0.4 0.1 1.5 1.1 0.2 1.1 7.5
0.0 0.0 0.0 0.0 0.0 0.0 0.0 0.0 0.0 0.0 0.0 0.0 0.0 0.0 0.0 0.0 0.0 0.0 2.0 0.0 0.0 22.7 17.1 0.0 0.0 0.0 0.0 0.0 7.9 14.3 18.0 11.4 13.6 26.5 20.8 17.5 19.3 14.5 4.4 8.4 6.2 9.5 6.5 14.2 14.6 14.2 2.0 0.3 0.6 0.4 0.4 0.5 2.9 7.5
0.0 0.0 0.0 0.0 0.0 0.0 0.0 0.0 0.0 0.0 0.0 0.0 0.0 0.0 0.0 0.0 0.0 0.0 0.0 0.0 0.0 30.1 12.5 3.7 6.4 0.0 0.0 0.0 0.0 17.1 6.4 3.6 11.2 9.6 20.3 14.5 16.2 6.8 10.0 8.2 7.6 5.7 2.9 9.4 4.3 1.2 1.3 0.6 0.0 0.0 0.2 0.2 0.4 4.5
0.0 0.0 0.0 0.0 0.0 0.0 0.0 0.0 0.0 0.0 0.0 0.0 0.0 0.0 0.0 0.0 0.0 0.0 0.0 0.0 3.4 18.8 33.7 10.1 0.0 3.2 0.0 0.0 0.0 0.0 0.0 0.0 1.3 3.0 25.1 20.8 14.5 3.7 4.2 4.0 6.7 9.8 8.4 7.4 4.4 1.0 0.9 0.3 0.3 0.2 0.2 0.2 0.5 0.3
0.0 0.0 0.0 0.0 0.0 0.0 0.0 0.0 0.0 0.0 0.0 0.0 0.0 0.0 0.0 0.0 0.0 0.0 0.0 0.0 0.0 7.3 22.3 11.8 0.0 0.0 2.7 0.0 0.0 0.0 0.0 2.1 6.7 18.0 27.5 16.9 4.7 7.0 3.8 5.6 7.8 3.2 11.4 11.1 9.5 2.4 3.7 0.7 0.7 0.4 0.8 1.0 1.7 1.2
0.0 0.0 0.0 0.0 0.0 0.0 0.0 0.0 0.0 0.0 0.0 0.0 0.0 0.0 0.0 0.0 0.0 0.0 54.2 0.0 0.0 0.0 22.0 19.6 2.4 2.3 4.9 2.0 0.6 0.7 1.3 3.7 6.5 14.5 14.1 5.0 0.4 7.6 13.2 7.6 1.0 1.7 6.5 8.5 11.2 4.8 3.6 3.7 2.2 0.9 2.2 3.4 4.4 2.7
0.0 0.0 0.0 0.0 0.0 0.0 0.0 0.0 0.0 0.0 0.0 0.0 0.0 0.0 0.0 0.0 0.0 28.8 24.0 2.7 0.0 0.0 35.8 21.2 12.3 1.8 3.1 3.4 3.6 6.0 3.2 9.3 8.4 11.0 9.2 4.0 4.1 9.2 10.6 1.5 0.2 0.0 2.1 4.7 6.7 8.8 8.4 9.4 11.2 7.0 2.6 2.8 3.3 1.5
0.0 0.0 0.0 0.0 0.0 0.0 0.0 0.0 0.0 0.0 0.0 0.0 0.0 0.0 0.0 0.0 0.0 10.7 0.0 0.0 0.0 2.9 17.0 26.2 14.6 15.3 1.7 7.4 11.0 3.8 12.7 11.6 12.9 9.7 5.7 3.5 4.3 7.7 10.5 0.0 0.0 0.1 0.3 0.8 0.8 1.3 3.9 5.0 5.1 4.5 1.8 0.6 0.1 0.0
0.0 0.0 0.0 0.0 0.0 0.0 0.0 0.0 0.0 0.0 0.0 0.0 0.0 0.0 0.0 0.0 39.9 0.0 0.0 0.0 0.0 3.7 33.5 13.0 12.5 24.3 2.0 7.4 7.4 8.8 6.5 21.4 8.9 15.5 6.5 6.3 7.2 10.0 1.3 0.2 0.7 0.1 0.1 0.1 0.0 0.0 0.2 1.0 0.2 0.0 0.3 0.1 1.1 1.2
0.0 0.0 0.0 0.0 0.0 0.0 0.0 0.0 0.0 0.0 0.0 0.0 0.0 51.6 72.3 6.1 0.0 0.0 7.2 25.8 32.3 25.2 17.4 12.7 1.3 12.5 2.6 6.4 16.6 16.8 16.7 14.2 18.1 5.5 2.5 9.3 4.0 1.2 0.9 0.7 0.3 0.4 0.1 0.1 0.9 1.5 0.9 0.8 0.3 0.1 0.0 1.0 0.2 0.1
0.0 0.0 0.0 0.0 0.0 0.0 0.0 0.0 0.0 0.0 0.0 6.9 51.1 45.5 0.0 0.0 0.3 15.0 55.2 42.5 30.8 24.1 4.3 1.9 0.1 2.5 0.3 14.5 17.3 10.2 23.0 13.6 20.2 5.9 5.3 8.1 5.0 5.3 4.5 4.3 2.4 1.8 0.6 0.5 0.4 0.3 0.0 0.1 2.3 1.8 1.0 0.3 0.1 0.1
0.0 0.0 0.0 0.0 0.0 0.0 0.0 0.0 0.0 0.0 0.0 0.0 0.1 0.0 0.4 16.6 42.7 45.9 34.3 22.5 6.5 2.8 4.5 2.9 7.0 8.1 4.5 1.3 16.6 27.9 20.4 21.5 9.6 6.8 18.0 8.8 7.5 3.3 2.5 4.0 1.7 0.1 0.0 0.2 0.0 0.0 0.3 0.2 0.1 0.3 1.0 0.9 1.0 3.9
0.0 0.0 0.0 0.0 0.0 0.0 0.0 0.0 0.0 0.0 0.0 0.1 17.2 26.1 32.5 36.3 44.3 28.8 16.7 8.8 6.7 2.4 3.2 2.7 12.4 5.5 9.9 4.9 19.8 22.7 33.6 19.8 7.2 29.1 15.3 10.9 5.9 6.4 5.8 1.1 0.4 0.6 0.8 0.5 1.2 0.1 0.0 0.0 0.9 2.0 3.3 7.0 6.5 6.1
0.0 0.0 0.0 0.0 0.0 0.0 0.2 0.0 0.0 0.0 1.8 23.4 33.9 37.7 27.0 19.8 12.7 7.1 4.2 3.4 3.2 2.7 3.7 5.5 10.3 14.9 7.3 13.2 13.9 24.2 17.2 16.6 23.5 15.3 14.7 16.7 10.7 5.7 4.7 4.2 6.5 6.3 4.9 3.3 1.4 1.1 2.3 1.9 3.2 4.7 4.8 7.8 7.0 7.0
0.2 0.1 0.0 0.0 0.0 0.0 0.0 0.0 0.0 0.0 23.4 28.7 16.4 15.2 9.0 8.8 5.6 4.0 2.7 1.8 2.0 3.6 8.3 11.2 12.3 14.1 20.6 30.0 14.7 11.2 16.3 15.6 11.8 16.4 17.7 14.4 9.4 7.0 6.1 7.3 7.8 10.6 11.8 10.2 11.8 12.5 11.5 9.7 7.9 10.7 10.9 9.9 8.0 8.6
0.3 0.2 0.0 0.0 0.0 0.0 0.0 0.0 3.1 10.0 27.7 17.6 13.5 11.1 7.3 5.6 7.1 6.3 5.3 5.6 2.5 4.4 8.8 14.7 20.1 20.0 21.1 17.9 18.6 12.6 12.9 15.6 18.7 15.2 12.3 6.7 5.5 6.0 7.0 7.8 8.7 10.0 11.3 11.5 11.5 12.9 14.4 15.4 15.6 16.7 16.6 14.5 13.5 11.6
1.1 9.0 0.0 0.1 0.0 2.0 3.9 7.8 19.7 37.8 22.3 12.3 12.3 7.7 8.0 10.1 7.0 6.8 7.4 8.1 5.1 13.1 18.7 19.5 22.7 15.1 11.4 14.4 9.9 10.5 16.4 18.2 12.2 9.4 6.8 5.5 7.5 6.6 7.0 6.5 7.2 7.5 9.8 10.8 11.0 12.1 13.3 14.7 14.1 12.5 12.9 14.8 12.6 12.3
3.6 0.1 0.3 0.1 0.4 8.1 15.7 10.4 26.3 20.4 14.9 9.9 11.7 11.1 7.7 9.1 10.1 8.9 7.3 7.3 9.1 10.5 12.1 18.5 10.3 8.7 9.0 10.4 16.5 17.7 16.9 12.4 7.6 6.6 7.5 8.4 8.2 8.9 7.5 5.9 7.1 7.3 8.3 10.7 10.1 11.3 11.3 9.6 8.4 9.9 10.2 10.9 9.8 10.3
3.2 0.6 0.0 0.3 2.1 21.3 37.0 27.4 11.2 15.7 11.7 9.9 8.4 8.0 6.7 9.8 12.1 9.6 9.2 8.3 6.5 6.0 13.1 9.3 10.2 5.9 8.2 11.5 15.1 12.0 9.9 8.2 9.4 10.1 10.9 11.1 10.4 8.9 8.1 7.5 6.8 9.3 9.1 10.7 9.6 8.9 9.9 9.1 7.5 7.6 8.1 7.7 7.1 8.5
0.0 0.7 0.0 0.8 4.0 29.4 25.6 18.3 2.0 9.5 12.7 9.8 7.3 6.4 6.3 10.2 9.7 8.2 6.2 5.1 5.7 9.9 12.1 12.1 9.5 11.2 13.2 13.2 14.4 13.1 10.9 9.2 7.1 7.8 10.3 12.5 13.6 10.0 9.7 9.7 10.1 9.7 8.7 8.8 9.3 9.7 9.2 8.8 8.5 5.4 4.7 6.3 7.5 7.5
1.0 0.0 0.2 1.9 8.6 17.8 15.9 10.1 10.5 6.7 8.9 10.3 6.3 3.5 8.0 3.9 4.7 4.6 3.8 1.7 5.4 8.5 10.0 11.0 12.9 12.5 12.7 14.2 12.6 9.7 9.1 7.2 8.1 7.0 7.7 9.2 10.9 7.8 8.8 9.3 8.5 8.9 7.1 7.7 8.0 10.2 8.1 6.7 6.6 6.1 4.7 4.6 5.9 7.0
22.3 1.1 15.9 4.8 22.2 18.5 15.7 5.8 5.4 6.9 9.7 9.5 5.4 5.1 6.5 6.3 4.0 3.8 1.9 4.2 8.6 12.1 11.1 11.2 11.1 10.3 9.1 10.0 11.4 10.1 11.4 7.3 6.6 6.6 7.3 6.0 8.1 7.6 8.6 10.0 7.1 7.4 7.1 6.9 6.4 7.9 6.9 5.6 5.0 6.1 6.8 6.9 5.5 5.4
2.9 5.7 23.3 22.0 19.9 14.0 7.7 4.2 7.2 8.8 11.1 10.7 5.4 4.8 6.6 4.7 3.8 1.0 6.8 6.8 11.2 13.1 11.0 8.8 9.5 9.8 9.7 11.1 8.4 7.9 9.5 7.6 8.7 10.5 9.9 9.1 8.4 8.4 7.9 8.8 7.6 6.6 7.8 8.3 6.0 5.8 6.0 6.2 6.6 7.8 8.1 7.2 6.2 6.3
4.0 23.7 24.4 18.3 11.7 7.6 4.8 7.1 8.7 8.9 7.3 7.9 7.1 7.5 6.4 3.7 0.5 4.5 7.9 9.6 11.3 7.5 6.6 7.8 7.2 8.7 9.1 7.7 8.7 9.0 11.2 7.8 8.4 9.9 10.4 7.6 7.1 8.7 7.2 7.5 5.5 6.0 5.3 6.7 6.5 6.3 6.5 6.4 5.2 6.0 5.8 6.5 6.1 6.6
33.7 24.3 11.8 11.2 6.4 6.7 4.6 3.1 3.5 6.7 8.5 7.7 9.3 9.4 9.9 5.5 8.4 7.5 8.6 11.2 7.7 6.6 6.4 7.0 6.8 6.9 6.5 8.0 8.9 9.1 8.8 9.1 9.8 9.8 11.0 9.2 9.7 8.3 7.7 8.1 7.8 7.1 5.2 6.8 8.2 8.1 7.4 6.6 6.3 5.4 4.3 3.8 5.7 5.0
17.5 6.8 7.8 5.2 5.5 6.2 6.6 5.1 5.4 4.3 5.2 5.4 6.0 4.0 3.5 6.8 6.9 10.4 10.4 11.0 8.2 8.2 8.5 8.5 8.4 6.0 6.3 7.3 7.1 5.3 6.7 7.4 7.6 6.8 9.9 8.3 9.9 10.4 11.2 10.7 9.9 9.4 5.9 6.3 7.7 8.0 6.9 5.9 5.9 5.8 6.4 4.7 4.8 5.3
10.0 3.3 1.2 0.6 1.5 2.1 2.8 3.2 3.4 4.0 5.2 5.7 6.8 5.4 6.1 8.4 7.5 8.1 7.7 7.2 7.4 8.4 7.0 7.2 6.4 7.0 7.2 6.8 6.4 5.8 5.1 4.6 5.2 6.9 7.7 7.2 7.8 8.2 10.9 13.2 13.4 11.7 8.6 7.7 6.9 6.5 7.6 7.5 7.3 6.8 6.8 6.4 6.1 5.8
3.8 1.6 1.9 1.4 2.0 1.8 3.2 2.6 4.9 5.4 4.4 3.3 5.5 5.2 6.8 6.0 8.6 9.3 8.6 7.6 6.0 4.9 3.9 3.4 3.0 3.4 3.9 4.4 4.6 4.2 3.9 4.5 4.6 4.3 3.8 3.8 6.0 8.4 9.3 10.0 8.3 7.6 8.2 7.8 8.3 8.5 8.2 8.7 8.2 8.0 7.8 7.3 7.4 6.4
3.2 2.1 2.5 3.2 2.8 3.5 5.7 4.7 4.9 3.9 3.1 3.2 4.3 4.3 5.1 5.1 7.8 7.2 6.7 5.0 4.6 4.0 3.2 2.4 2.6 1.2 1.2 1.0 1.0 2.5 3.4 3.9 3.5 4.3 3.3 4.7 7.1 7.1 7.0 7.6 8.0 8.4 8.8 9.4 9.4 9.2 10.3 9.9 9.3 8.8 9.0 9.6 7.9 7.4
1.8 1.8 2.2 2.4 2.4 3.1 5.6 3.0 3.6 2.6 1.3 1.2 2.0 3.1 3.2 7.3 9.5 7.2 4.9 3.6 3.2 3.5 3.4 2.8 2.4 2.0 1.8 1.6 2.1 1.9 2.8 3.1 3.3 4.6 4.9 4.0 4.8 5.2 5.3 7.6 9.1 8.9 9.8 9.9 11.6 12.0 12.1 11.6 11.2 11.2 10.5 9.4 9.2 10.1
0.7 1.0 1.2 2.1 4.1 6.1 4.5 3.4 3.4 1.8 1.3 1.0 1.4 3.5 4.6 6.2 7.0 4.5 3.1 3.6 2.4 1.7 1.6 1.7 2.1 2.2 1.8 2.6 3.5 3.6 4.1 3.0 2.5 3.0 3.6 4.1 4.1 4.7 5.7 7.3 9.5 9.8 10.1 10.3 9.0 9.7 11.2 11.2 10.9 10.9 9.8 8.5 7.6 7.8
0.9 1.8 1.7 1.9 4.2 5.0 4.6 5.6 4.2 3.5 3.3 3.1 4.4 3.1 4.3 4.0 4.5 6.1 3.6 2.6 2.4 1.9 1.6 2.1 2.3 2.7 3.5 4.6 4.7 5.8 5.6 4.0 3.1 2.9 2.7 3.8 4.7 5.8 7.5 8.5 8.4 7.9 7.1 7.1 6.7 7.5 7.7 8.9 10.5 9.4 8.5 8.5 8.2 7.3
2.8 1.8 1.5 2.8 3.1 3.4 2.5 3.6 2.4 4.1 4.1 4.8 6.4 4.5 3.8 3.4 5.3 6.6 3.1 2.7 4.7 3.8 3.4 4.1 4.2 4.5 4.9 4.9 5.7 5.1 4.2 4.0 4.1 3.9 3.7 4.4 4.9 6.0 7.6 7.6 6.9 6.2 5.3 4.8 4.8 5.3 5.2 5.8 6.2 8.0 8.6 8.6 9.3 9.1